Simultaneous Nadir Overpasses (SNOs) Predictions

Prediction of SNOs between GOES-15 and TERRA Satellite Orbit:

Table of predicted SNOs for the next 14.0 days since TLE Epoch: 12/16/2022
Index Date Time (GOES-15) GOES-15 Lat,Lon TERRA Lat,Lon Distance(km) Time Diff (sec)
1 12/18/2022 06:43:17 0.09,-127.35 0.06,-127.40 6.83 80
2 12/20/2022 06:24:53 0.10,-127.26 0.87,-123.60 415.93 80
3 12/20/2022 18:45:14 -0.09,-127.20 0.19,-128.54 151.60 80
4 12/22/2022 18:32:09 -0.09,-127.10 -0.57,-124.72 269.92 80
5 12/23/2022 06:52:38 0.08,-127.11 -0.46,-129.70 294.80 80
6 12/25/2022 06:34:13 0.08,-127.00 0.32,-125.89 125.82 80
7 12/25/2022 18:54:34 -0.07,-126.93 0.73,-130.83 442.86 80
8 12/27/2022 18:38:48 -0.07,-126.82 -0.01,-127.01 22.07 80
9 12/29/2022 18:25:43 -0.06,-126.71 -0.82,-123.21 398.91 80
10 12/30/2022 06:46:11 0.06,-126.72 -0.25,-128.17 165.32 80
